Regional Weather Roundup
Issued by NWS

Home | Current Version | Previous Version | Text Only | Print | Product List | Glossary Off
Versions: 1 2 3 4 5 6 7 8 9 10 11 12 13 14 15 16 17 18 19 20 21 22 23 24 25 26 27 28 29 30 31 32 33 34 35 36 37 38 39 40 41 42 43 44 45 46 47 48 49 50

000
ASUS43 KBIS 270701
RWRND

NORTH DAKOTA REGIONAL WEATHER ROUNDUP
NATIONAL WEATHER SERVICE BISMARCK ND
100 AM CST TUE JAN 27 2015

NOTE: "FAIR" INDICATES FEW OR NO CLOUDS BELOW 12,000 FEET WITH NO
SIGNIFICANT WEATHER AND/OR OBSTRUCTIONS TO VISIBILITY.


NDZ001>003-009>011-017-270800-
NORTHWEST NORTH DAKOTA

CITY           SKY/WX    TMP DP  RH WIND       PRES   REMARKS
WILLISTON      CLEAR     28  26  92 CALM      29.86F
MINOT          CLEAR     30  26  85 SE3       29.90F
MINOT AFB      CLEAR     27  27 100 SE5       29.89F
$$

NDZ018>021-031>035-040>046-270800-
SOUTHWEST NORTH DAKOTA

CITY           SKY/WX    TMP DP  RH WIND       PRES   REMARKS
BISMARCK       MOCLDY    30  28  92 CALM      29.96F
DICKINSON      CLEAR     32  28  85 S7        29.88S
GARRISON         N/A     32  30  92 S6        29.91F
HETTINGER ARPT CLEAR     29  26  89 CALM      29.93F
$$

NDZ004>008-012>016-024-026-027-054-270800-
NORTHEAST NORTH DAKOTA

CITY           SKY/WX    TMP DP  RH WIND       PRES   REMARKS
GRAND FORKS    FOG       25  24  96 S6        30.04R VSB 1   WCI  18
GRND FRKS AFB  CLEAR     20  19  93 S5        30.03R WCI  14
DEVILS LAKE    CLEAR     23  21  93 CALM      29.96F
$$

NDZ022-023-025-028>030-036>039-047>053-270800-
SOUTHEAST NORTH DAKOTA

CITY           SKY/WX    TMP DP  RH WIND       PRES   REMARKS
FARGO          CLOUDY    28  25  88 NE3       30.05R
JAMESTOWN      CLEAR     25  24  96 S3        29.99R
$$



USA.gov is the U.S. government's official web portal to all federal, state and local government web resources and services.